{"data":{"norad_id":58861,"epoch":"2026-09-20T22:24:57.494592Z","epoch_age_seconds":115132,"freshness":"FRESH","line1":"1 58861U 24019J   26263.93399878  .00001330  00000+0  57810-4 0  9990","line2":"2 58861  43.0016 226.1853 0000932 262.6570  97.4176 15.27590953148949","mean_motion":15.27590953,"eccentricity":9.32e-5,"inclination_deg":43.0016,"raan_deg":226.1853,"arg_perigee_deg":262.657,"mean_anomaly_deg":97.4176,"bstar":5.781e-5,"rev_number":14894,"period_min":94.266072810396,"perigee_km":482.37683952583,"apogee_km":483.65575850077,"semimajor_km":6861.1532990133,"source":"CELESTRAK","updated_at":"2026-09-21T09:00:33.988564Z"}}